Hourly Data Report for September 17, 2017

All times are specified in Local Standard Time (LST). Add 1 hour to adjust for Daylight Saving Time where and when it is observed.

NAPPAN AUTO
NOVA SCOTIA

45°45'34.400" N
64°14'29.200" W
19.80 m
8203702
71311
XNP

Download Data

Hourly Data (September 2017)
Hourly Data Report for September 17, 2017
Temp Definition
°C
Dew Point Temp Definition
°C
Rel Hum Definition
%
Wind Dir Definition
10's deg

Wind Spd Definition
km/h
Visibility Definition
km
Stn Press Definition
kPa
Hmdx Definition


Wind Chill Definition


Weather Definition


TIME
00:00 13.9 12.4 91 1 4   101.97     LegendNANA
01:00 14.0 12.9 93 2 5   102.01     LegendNANA
02:00 14.1 13.0 93 27 1   101.96     LegendNANA
03:00 14.1 12.8 92 4 4   101.95     LegendNANA
04:00 13.9 12.9 94 1 5   101.95     LegendNANA
05:00 14.2 13.1 93 36 4   101.99     LegendNANA
06:00 14.3 13.3 94 36 5   102.01     LegendNANA
07:00 14.6 13.5 93 33 6   102.04     LegendNANA
08:00 15.1 13.4 90 5 6   102.09     LegendNANA
09:00 16.0 13.8 87 6 3   102.11     LegendNANA
10:00 16.7 14.1 85 15 9   102.05     LegendNANA
11:00 17.2 14.1 82 13 2   102.06     LegendNANA
12:00 17.9 14.4 80 20 2   102.02     LegendNANA
13:00 19.2 15.2 78 22 10   101.96     LegendNANA
14:00 19.4 15.7 79 33 5   101.96     LegendNANA
15:00 19.3 16.0 82 27 6   101.94     LegendNANA
16:00 19.5 15.9 80 24 4   101.91     LegendNANA
17:00 18.6 16.3 87 30 9   101.94     LegendNANA
18:00 18.2 16.2 88 31 5   101.95     LegendNANA
19:00 17.3 15.7 91 27 5   101.97     LegendNANA
20:00 16.8 15.6 93 30 3   101.98     LegendNANA
21:00 16.4 15.5 95 1 7   102.04     LegendNANA
22:00 16.0 15.5 97 25 2   102.06     LegendNANA
23:00 16.0 15.6 98 19 6   102.05     LegendNANA

Notes on Data Quality.

Legend

  • E = Estimated
  • M = Missing
  • NA = Not Available
  • ‡ = Partner data that is not subject to review by the National Climate Archives
Date modified: